RSC40N GCTS-GCLP

Flight info

Callsign RSC40N
Flight time 0h 22m
Altitude 9000
Route PELIN
Aircraft AT76/M-SDFGIRY/S

Departure

Time 2026-05-05 16:55
Airport Tenerife Sur Airport (GCTS)

Arrival

Time 2026-05-05 17:17
Airport Gran Canaria Airport (GCLP)
Time Latitude Longitude Altitude Speed Heading
2026-05-05 16:31 28.04529 -16.57762 219 ft 0 kts 338°
2026-05-05 16:50 28.04540 -16.57767 220 ft 6 kts 338°
2026-05-05 16:50 28.04571 -16.57822 221 ft 12 kts 258°
2026-05-05 16:50 28.04536 -16.57917 221 ft 13 kts 227°
2026-05-05 16:50 28.04463 -16.57911 219 ft 10 kts 159°
2026-05-05 16:51 28.04408 -16.57904 219 ft 10 kts 212°
2026-05-05 16:51 28.04365 -16.58010 219 ft 20 kts 248°
2026-05-05 16:51 28.04303 -16.58183 219 ft 26 kts 247°
2026-05-05 16:51 28.04244 -16.58363 219 ft 22 kts 247°
2026-05-05 16:52 28.04191 -16.58517 219 ft 20 kts 255°
2026-05-05 16:52 28.04146 -16.58663 220 ft 20 kts 248°
2026-05-05 16:52 28.04091 -16.58820 206 ft 18 kts 253°
2026-05-05 16:52 28.04021 -16.58877 205 ft 11 kts 162°
2026-05-05 16:53 28.03959 -16.58814 202 ft 14 kts 120°
2026-05-05 16:53 28.03929 -16.58730 197 ft 9 kts 75°
2026-05-05 16:53 28.03930 -16.58724 192 ft 0 kts 72°
2026-05-05 16:54 28.03931 -16.58724 192 ft 0 kts 72°
2026-05-05 16:54 28.04008 -16.58496 196 ft 63 kts 69°
2026-05-05 16:54 28.04249 -16.57825 196 ft 117 kts 64°
2026-05-05 16:55 28.04625 -16.56930 504 ft 132 kts 68°
2026-05-05 16:55 28.05009 -16.55893 808 ft 146 kts 73°
2026-05-05 16:55 28.05349 -16.54750 923 ft 165 kts 71°
2026-05-05 16:55 28.05745 -16.53485 1261 ft 170 kts 68°
2026-05-05 16:56 28.06159 -16.52231 1727 ft 169 kts 65°
2026-05-05 16:56 28.06599 -16.50978 2109 ft 173 kts 65°
2026-05-05 16:56 28.07045 -16.49711 2494 ft 175 kts 64°
2026-05-05 16:56 28.07483 -16.48417 2820 ft 177 kts 73°
2026-05-05 16:57 28.07283 -16.47037 3091 ft 189 kts 123°
2026-05-05 16:57 28.06379 -16.45961 3408 ft 192 kts 132°
2026-05-05 16:57 28.05480 -16.44841 3771 ft 192 kts 129°
2026-05-05 16:57 28.04665 -16.43657 4182 ft 190 kts 124°
2026-05-05 16:58 28.03922 -16.42399 4520 ft 192 kts 120°
2026-05-05 16:58 28.03256 -16.41087 4869 ft 193 kts 117°
2026-05-05 16:58 28.02636 -16.39745 5226 ft 193 kts 117°
2026-05-05 16:58 28.02017 -16.38387 5566 ft 194 kts 117°
2026-05-05 16:59 28.01399 -16.37027 5942 ft 193 kts 117°
2026-05-05 16:59 28.00772 -16.35673 6271 ft 195 kts 119°
2026-05-05 16:59 28.00120 -16.34294 6488 ft 202 kts 118°
2026-05-05 16:59 27.99460 -16.32900 6835 ft 201 kts 119°
2026-05-05 17:00 27.98789 -16.31482 7067 ft 206 kts 121°
2026-05-05 17:00 27.98104 -16.30067 7374 ft 207 kts 121°
2026-05-05 17:00 27.97442 -16.28634 7685 ft 207 kts 120°
2026-05-05 17:00 27.96763 -16.27204 8014 ft 205 kts 122°
2026-05-05 17:01 27.96077 -16.25783 8307 ft 206 kts 122°
2026-05-05 17:01 27.95393 -16.24351 8606 ft 208 kts 122°
2026-05-05 17:01 27.94701 -16.22906 8849 ft 212 kts 122°
2026-05-05 17:01 27.93983 -16.21409 8942 ft 223 kts 122°
2026-05-05 17:02 27.93224 -16.19826 8977 ft 235 kts 122°
2026-05-05 17:02 27.92431 -16.18176 8990 ft 244 kts 122°
2026-05-05 17:02 27.91602 -16.16464 9000 ft 252 kts 122°
2026-05-05 17:02 27.90756 -16.14698 9004 ft 257 kts 122°
2026-05-05 17:03 27.89896 -16.12900 9005 ft 261 kts 122°
2026-05-05 17:03 27.89027 -16.11080 9007 ft 265 kts 121°
2026-05-05 17:03 27.88164 -16.09264 9007 ft 267 kts 121°
2026-05-05 17:03 27.87270 -16.07385 9006 ft 269 kts 121°
2026-05-05 17:04 27.86383 -16.05522 9003 ft 270 kts 121°
2026-05-05 17:04 27.85504 -16.03680 9003 ft 270 kts 121°
2026-05-05 17:04 27.84608 -16.01808 9002 ft 271 kts 121°
2026-05-05 17:04 27.83711 -15.99931 8998 ft 272 kts 121°
2026-05-05 17:05 27.82815 -15.98058 8996 ft 272 kts 121°
2026-05-05 17:05 27.81915 -15.96178 8999 ft 272 kts 122°
2026-05-05 17:05 27.81012 -15.94294 9000 ft 273 kts 122°
2026-05-05 17:05 27.80096 -15.92385 9000 ft 273 kts 122°
2026-05-05 17:06 27.79194 -15.90504 9000 ft 273 kts 122°
2026-05-05 17:06 27.78298 -15.88638 9001 ft 273 kts 121°
2026-05-05 17:06 27.77397 -15.86754 9001 ft 273 kts 121°
2026-05-05 17:06 27.76499 -15.84862 9001 ft 274 kts 121°
2026-05-05 17:07 27.75601 -15.82968 9001 ft 274 kts 121°
2026-05-05 17:07 27.74703 -15.81072 9001 ft 274 kts 121°
2026-05-05 17:07 27.73808 -15.79175 8997 ft 274 kts 121°
2026-05-05 17:07 27.72907 -15.77259 8775 ft 282 kts 121°
2026-05-05 17:08 27.72283 -15.75950 8528 ft 289 kts 121°
2026-05-05 17:08 27.71318 -15.73963 8167 ft 288 kts 121°
2026-05-05 17:08 27.70451 -15.71914 7720 ft 286 kts 107°
2026-05-05 17:08 27.70131 -15.69735 7248 ft 285 kts 98°
2026-05-05 17:09 27.69890 -15.67539 6775 ft 273 kts 97°
2026-05-05 17:09 27.69681 -15.65508 6299 ft 249 kts 96°
2026-05-05 17:09 27.69586 -15.63639 5791 ft 229 kts 88°
2026-05-05 17:09 27.69948 -15.61974 5297 ft 212 kts 70°
2026-05-05 17:10 27.70364 -15.60317 4817 ft 228 kts 75°
2026-05-05 17:10 27.70740 -15.58533 4390 ft 237 kts 76°
2026-05-05 17:10 27.71226 -15.56764 4032 ft 236 kts 65°
2026-05-05 17:10 27.71909 -15.55069 3669 ft 238 kts 63°
2026-05-05 17:11 27.72643 -15.53381 3303 ft 240 kts 61°
2026-05-05 17:11 27.73381 -15.51699 2920 ft 239 kts 61°
2026-05-05 17:11 27.74107 -15.50018 2549 ft 237 kts 61°
2026-05-05 17:11 27.74832 -15.48373 2252 ft 222 kts 61°
2026-05-05 17:12 27.75628 -15.47103 2113 ft 184 kts 39°
2026-05-05 17:12 27.76613 -15.46176 2057 ft 184 kts 36°
2026-05-05 17:12 27.77701 -15.45461 2020 ft 179 kts 24°
2026-05-05 17:12 27.78852 -15.44952 2003 ft 176 kts 19°
2026-05-05 17:13 27.79988 -15.44493 2008 ft 168 kts 19°
2026-05-05 17:13 27.81051 -15.44047 2012 ft 159 kts 19°
2026-05-05 17:13 27.82055 -15.43609 1992 ft 148 kts 21°
2026-05-05 17:13 27.82952 -15.43196 1986 ft 131 kts 21°
2026-05-05 17:14 27.83772 -15.42823 1837 ft 120 kts 20°
2026-05-05 17:14 27.84513 -15.42488 1686 ft 110 kts 19°
2026-05-05 17:14 27.85211 -15.42198 1518 ft 104 kts 19°
2026-05-05 17:14 27.85858 -15.41915 1374 ft 97 kts 20°
2026-05-05 17:15 27.86550 -15.41619 1260 ft 118 kts 20°
2026-05-05 17:15 27.87305 -15.41275 1089 ft 114 kts 22°
2026-05-05 17:15 27.88001 -15.40947 939 ft 105 kts 22°
2026-05-05 17:15 27.88667 -15.40654 830 ft 104 kts 20°
2026-05-05 17:16 27.89342 -15.40367 728 ft 103 kts 22°
2026-05-05 17:16 27.90023 -15.40087 526 ft 105 kts 22°
2026-05-05 17:16 27.90702 -15.39786 427 ft 103 kts 22°
2026-05-05 17:16 27.91365 -15.39486 254 ft 99 kts 23°
2026-05-05 17:17 27.91995 -15.39203 104 ft 95 kts 24°
2026-05-05 17:17 27.92546 -15.38939 69 ft 75 kts 22°
2026-05-05 17:17 27.92875 -15.38796 59 ft 41 kts 22°
2026-05-05 17:17 27.93117 -15.38716 59 ft 31 kts
2026-05-05 17:18 27.93280 -15.38734 67 ft 0 kts 351°
2026-05-05 17:20 27.93281 -15.38735 67 ft 3 kts 351°
2026-05-05 17:20 27.93347 -15.38755 70 ft 9 kts 316°
2026-05-05 17:21 27.93305 -15.38799 71 ft 19 kts 202°
2026-05-05 17:21 27.93212 -15.38839 67 ft 1 kts 201°
2026-05-05 17:21 27.93182 -15.38865 70 ft 6 kts 261°
2026-05-05 17:22 27.93199 -15.38928 71 ft 0 kts 288°